TDRS 10

Last updated on Sat Apr 13 2024 01:02:32 GMT+0100 (British Summer Time)

1 27566U 02055A 24103.56993904 .00000079 00000+0 00000+0 0 9997 2 27566 9.4414 45.8499 0007233 327.0718 222.3236 1.00270785 78254
UTC large
Height (km)
Speed (km/s)
/
Latitude / Longitude
Inclination (degrees)
Orbital Period (minutes)
Azimuth
Elevation
Range (km)
Doppler Factor

Next 0 passes for location: London (51.5072 / 0.1276)

Sorry there are no passes over London.